Time,TemperatureF,DewpointF,PressureIn,WindDirection,WindDirectionDegrees,WindSpeedMPH,WindSpeedGustMPH,Humidity,HourlyPrecipIn,Conditions,Clouds,dailyrainin,SolarRadiationWatts/m^2,SoftwareType,DateUTC
2013-02-21 00:01:00,24.1,13.0,29.92,WNW,300,5.0,-999.0,63,-99.99,,,0.00,0,weatherlink.com 1.10,2013-02-21 05:01:00,
2013-02-21 00:16:00,24.2,13.0,29.92,NW,304,2.0,-999.0,62,-99.99,,,0.00,0,weatherlink.com 1.10,2013-02-21 05:16:00,
2013-02-21 00:31:00,24.3,13.0,29.91,WNW,293,4.0,-999.0,62,-99.99,,,0.00,0,weatherlink.com 1.10,2013-02-21 05:31:00,
2013-02-21 00:46:00,24.2,13.0,29.91,WNW,284,4.0,-999.0,63,-99.99,,,0.00,0,weatherlink.com 1.10,2013-02-21 05:46:00,
2013-02-21 01:01:00,24.1,13.0,29.91,NNW,336,1.0,-999.0,63,-99.99,,,0.00,0,weatherlink.com 1.10,2013-02-21 06:01:00,
2013-02-21 01:16:00,24.1,13.0,29.91,NW,325,3.0,-999.0,63,-99.99,,,0.00,0,weatherlink.com 1.10,2013-02-21 06:16:00,
2013-02-21 01:31:00,23.9,13.0,29.91,NW,306,0.0,-999.0,64,-99.99,,,0.00,0,weatherlink.com 1.10,2013-02-21 06:31:00,
2013-02-21 01:46:00,23.9,13.0,29.91,NNW,328,7.0,-999.0,64,-99.99,,,0.00,0,weatherlink.com 1.10,2013-02-21 06:46:00,
2013-02-21 02:01:00,23.8,13.0,29.92,WNW,297,5.0,-999.0,64,-99.99,,,0.00,0,weatherlink.com 1.10,2013-02-21 07:01:00,
2013-02-21 02:16:00,23.7,13.0,29.91,WNW,298,11.0,-999.0,64,-99.99,,,0.00,0,weatherlink.com 1.10,2013-02-21 07:16:00,
2013-02-21 02:31:00,23.5,13.0,29.91,NNW,342,4.0,-999.0,64,-99.99,,,0.00,0,weatherlink.com 1.10,2013-02-21 07:31:00,
2013-02-21 02:46:00,23.4,13.0,29.91,WNW,303,5.0,-999.0,65,-99.99,,,0.00,0,weatherlink.com 1.10,2013-02-21 07:46:00,
2013-02-21 03:01:00,23.2,13.0,29.91,NW,308,4.0,-999.0,65,-99.99,,,0.00,0,weatherlink.com 1.10,2013-02-21 08:01:00,
2013-02-21 03:16:00,23.3,13.0,29.91,NNW,340,4.0,-999.0,66,-99.99,,,0.00,0,weatherlink.com 1.10,2013-02-21 08:16:00,
2013-02-21 03:31:00,23.2,13.0,29.91,North,350,5.0,-999.0,66,-99.99,,,0.00,0,weatherlink.com 1.10,2013-02-21 08:31:00,
2013-02-21 03:46:00,23.3,13.0,29.91,NW,315,4.0,-999.0,66,-99.99,,,0.00,0,weatherlink.com 1.10,2013-02-21 08:46:00,
2013-02-21 04:02:00,23.4,14.0,29.91,West,276,6.0,-999.0,66,-99.99,,,0.00,0,weatherlink.com 1.10,2013-02-21 09:02:00,
2013-02-21 04:16:00,23.4,14.0,29.92,North,349,4.0,-999.0,67,-99.99,,,0.00,0,weatherlink.com 1.10,2013-02-21 09:16:00,
2013-02-21 04:31:00,23.4,14.0,29.91,NW,318,4.0,-999.0,67,-99.99,,,0.00,0,weatherlink.com 1.10,2013-02-21 09:31:00,
2013-02-21 04:46:00,23.3,14.0,29.92,WNW,286,9.0,-999.0,67,-99.99,,,0.00,0,weatherlink.com 1.10,2013-02-21 09:46:00,
2013-02-21 05:01:00,23.4,14.0,29.92,North,355,4.0,-999.0,66,-99.99,,,0.00,0,weatherlink.com 1.10,2013-02-21 10:01:00,
2013-02-21 05:16:00,23.5,14.0,29.93,West,272,8.0,-999.0,66,-99.99,,,0.00,0,weatherlink.com 1.10,2013-02-21 10:16:00,
2013-02-21 05:31:00,23.5,13.0,29.93,NW,318,6.0,-999.0,65,-99.99,,,0.00,0,weatherlink.com 1.10,2013-02-21 10:31:00,
2013-02-21 05:46:00,23.4,14.0,29.93,NW,306,3.0,-999.0,66,-99.99,,,0.00,0,weatherlink.com 1.10,2013-02-21 10:46:00,
2013-02-21 06:01:00,23.4,14.0,29.94,WNW,283,5.0,-999.0,66,-99.99,,,0.00,0,weatherlink.com 1.10,2013-02-21 11:01:00,
2013-02-21 06:16:00,23.3,13.0,29.92,ENE,62,8.0,-999.0,65,-99.99,,,0.00,0,weatherlink.com 1.10,2013-02-21 11:16:00,
2013-02-21 06:31:00,23.2,13.0,29.93,WSW,255,2.0,-999.0,66,-99.99,,,0.00,0,weatherlink.com 1.10,2013-02-21 11:31:00,
2013-02-21 06:46:00,23.1,13.0,29.93,NNW,336,3.0,-999.0,66,-99.99,,,0.00,5,weatherlink.com 1.10,2013-02-21 11:46:00,
2013-02-21 07:01:00,23.0,13.0,29.93,NNW,343,1.0,-999.0,66,-99.99,,,0.00,14,weatherlink.com 1.10,2013-02-21 12:01:00,
2013-02-21 07:16:00,23.2,13.0,29.93,West,273,7.0,-999.0,65,-99.99,,,0.00,32,weatherlink.com 1.10,2013-02-21 12:16:00,
2013-02-21 07:31:00,23.7,13.0,29.93,WNW,296,2.0,-999.0,64,-99.99,,,0.00,70,weatherlink.com 1.10,2013-02-21 12:31:00,
2013-02-21 07:46:00,24.2,13.0,29.94,WNW,301,4.0,-999.0,63,-99.99,,,0.00,120,weatherlink.com 1.10,2013-02-21 12:46:00,
2013-02-21 08:01:00,24.4,13.0,29.94,WNW,298,6.0,-999.0,62,-99.99,,,0.00,179,weatherlink.com 1.10,2013-02-21 13:01:00,
2013-02-21 08:16:00,24.8,13.0,29.94,WNW,290,4.0,-999.0,61,-99.99,,,0.00,234,weatherlink.com 1.10,2013-02-21 13:16:00,
2013-02-21 08:31:00,25.3,13.0,29.94,WNW,295,2.0,-999.0,60,-99.99,,,0.00,285,weatherlink.com 1.10,2013-02-21 13:31:00,
2013-02-21 08:46:00,25.9,13.0,29.94,NNW,337,1.0,-999.0,59,-99.99,,,0.00,329,weatherlink.com 1.10,2013-02-21 13:46:00,
2013-02-21 09:01:00,26.5,13.0,29.94,NNW,340,4.0,-999.0,57,-99.99,,,0.00,396,weatherlink.com 1.10,2013-02-21 14:01:00,
2013-02-21 09:16:00,26.8,12.0,29.94,WSW,254,3.0,-999.0,55,-99.99,,,0.00,443,weatherlink.com 1.10,2013-02-21 14:16:00,
2013-02-21 09:31:00,27.3,13.0,29.95,WSW,245,6.0,-999.0,54,-99.99,,,0.00,571,weatherlink.com 1.10,2013-02-21 14:31:00,
2013-02-21 09:46:00,27.2,12.0,29.95,NNW,347,5.0,-999.0,54,-99.99,,,0.00,520,weatherlink.com 1.10,2013-02-21 14:46:00,
2013-02-21 10:01:00,27.9,13.0,29.95,WNW,285,5.0,-999.0,53,-99.99,,,0.00,554,weatherlink.com 1.10,2013-02-21 15:01:00,
2013-02-21 10:16:00,28.7,13.0,29.95,North,350,5.0,-999.0,52,-99.99,,,0.00,541,weatherlink.com 1.10,2013-02-21 15:16:00,
2013-02-21 10:31:00,29.1,13.0,29.94,North,355,3.0,-999.0,52,-99.99,,,0.00,584,weatherlink.com 1.10,2013-02-21 15:31:00,
2013-02-21 10:46:00,29.5,14.0,29.95,NW,322,5.0,-999.0,52,-99.99,,,0.00,603,weatherlink.com 1.10,2013-02-21 15:46:00,
2013-02-21 11:01:00,29.4,13.0,29.96,NNW,332,8.0,-999.0,50,-99.99,,,0.00,647,weatherlink.com 1.10,2013-02-21 16:01:00,
2013-02-21 11:16:00,29.9,13.0,29.95,NW,320,11.0,-999.0,50,-99.99,,,0.00,694,weatherlink.com 1.10,2013-02-21 16:16:00,
2013-02-21 11:31:00,30.9,14.0,29.96,WSW,257,5.0,-999.0,50,-99.99,,,0.00,733,weatherlink.com 1.10,2013-02-21 16:31:00,
2013-02-21 11:46:00,30.6,13.0,29.96,NW,310,10.0,-999.0,49,-99.99,,,0.00,608,weatherlink.com 1.10,2013-02-21 16:46:00,
2013-02-21 12:01:00,31.1,14.0,29.96,NE,44,5.0,-999.0,49,-99.99,,,0.00,575,weatherlink.com 1.10,2013-02-21 17:01:00,
2013-02-21 12:16:00,31.4,15.0,29.96,WNW,295,5.0,-999.0,50,-99.99,,,0.00,577,weatherlink.com 1.10,2013-02-21 17:16:00,
2013-02-21 12:31:00,30.7,14.0,29.96,North,5,11.0,-999.0,50,-99.99,,,0.00,691,weatherlink.com 1.10,2013-02-21 17:31:00,
2013-02-21 12:46:00,30.6,14.0,29.95,WNW,297,5.0,-999.0,51,-99.99,,,0.00,246,weatherlink.com 1.10,2013-02-21 17:46:00,
2013-02-21 13:01:00,31.1,14.0,29.95,NNE,33,5.0,-999.0,50,-99.99,,,0.00,640,weatherlink.com 1.10,2013-02-21 18:01:00,
2013-02-21 13:16:00,31.2,14.0,29.94,NNW,336,3.0,-999.0,50,-99.99,,,0.00,622,weatherlink.com 1.10,2013-02-21 18:16:00,
2013-02-21 13:31:00,31.4,15.0,29.95,NNE,28,5.0,-999.0,50,-99.99,,,0.00,603,weatherlink.com 1.10,2013-02-21 18:31:00,
2013-02-21 13:46:00,31.2,14.0,29.95,West,281,6.0,-999.0,50,-99.99,,,0.00,582,weatherlink.com 1.10,2013-02-21 18:46:00,
2013-02-21 14:01:00,31.5,15.0,29.95,NNE,15,7.0,-999.0,50,-99.99,,,0.00,557,weatherlink.com 1.10,2013-02-21 19:01:00,
2013-02-21 14:16:00,32.1,15.0,29.96,North,5,2.0,-999.0,49,-99.99,,,0.00,531,weatherlink.com 1.10,2013-02-21 19:16:00,
2013-02-21 14:31:00,32.1,16.0,29.97,NW,324,3.0,-999.0,51,-99.99,,,0.00,626,weatherlink.com 1.10,2013-02-21 19:31:00,
2013-02-21 14:46:00,31.7,14.0,29.97,NW,306,5.0,-999.0,49,-99.99,,,0.00,496,weatherlink.com 1.10,2013-02-21 19:46:00,
2013-02-21 15:01:00,32.2,15.0,29.97,NW,323,3.0,-999.0,50,-99.99,,,0.00,436,weatherlink.com 1.10,2013-02-21 20:01:00,
2013-02-21 15:16:00,32.3,15.0,29.98,NNE,30,6.0,-999.0,50,-99.99,,,0.00,392,weatherlink.com 1.10,2013-02-21 20:16:00,
2013-02-21 15:31:00,31.4,15.0,29.99,NNW,338,3.0,-999.0,52,-99.99,,,0.00,345,weatherlink.com 1.10,2013-02-21 20:31:00,
2013-02-21 15:46:00,31.6,15.0,30.00,North,360,6.0,-999.0,51,-99.99,,,0.00,295,weatherlink.com 1.10,2013-02-21 20:46:00,
2013-02-21 16:01:00,30.9,15.0,30.02,North,355,6.0,-999.0,52,-99.99,,,0.00,255,weatherlink.com 1.10,2013-02-21 21:01:00,
2013-02-21 16:16:00,29.9,15.0,30.03,North,5,5.0,-999.0,54,-99.99,,,0.00,49,weatherlink.com 1.10,2013-02-21 21:16:00,
2013-02-21 16:31:00,29.5,15.0,30.05,NNE,21,3.0,-999.0,56,-99.99,,,0.00,39,weatherlink.com 1.10,2013-02-21 21:31:00,
2013-02-21 16:46:00,29.1,15.0,30.05,NNW,331,8.0,-999.0,56,-99.99,,,0.00,32,weatherlink.com 1.10,2013-02-21 21:46:00,
2013-02-21 17:01:00,28.9,15.0,30.07,NNE,26,2.0,-999.0,56,-99.99,,,0.00,33,weatherlink.com 1.10,2013-02-21 22:01:00,
2013-02-21 17:16:00,28.1,14.0,30.08,North,355,8.0,-999.0,57,-99.99,,,0.00,18,weatherlink.com 1.10,2013-02-21 22:16:00,
2013-02-21 17:31:00,27.4,15.0,30.09,NNW,337,3.0,-999.0,59,-99.99,,,0.00,5,weatherlink.com 1.10,2013-02-21 22:31:00,
2013-02-21 17:46:00,26.7,14.0,30.09,NNE,26,5.0,-999.0,60,-99.99,,,0.00,0,weatherlink.com 1.10,2013-02-21 22:46:00,
2013-02-21 18:01:00,26.2,14.0,30.11,NNE,14,1.0,-999.0,61,-99.99,,,0.00,0,weatherlink.com 1.10,2013-02-21 23:01:00,
2013-02-21 18:16:00,25.8,14.0,30.11,NNW,348,4.0,-999.0,62,-99.99,,,0.00,0,weatherlink.com 1.10,2013-02-21 23:16:00,
2013-02-21 18:31:00,25.5,14.0,30.12,NNE,17,2.0,-999.0,63,-99.99,,,0.00,0,weatherlink.com 1.10,2013-02-21 23:31:00,
2013-02-21 18:46:00,25.1,14.0,30.13,NNE,22,6.0,-999.0,64,-99.99,,,0.00,0,weatherlink.com 1.10,2013-02-21 23:46:00,
2013-02-21 19:01:00,24.7,14.0,30.15,NW,321,2.0,-999.0,64,-99.99,,,0.00,0,weatherlink.com 1.10,2013-02-22 00:01:00,
2013-02-21 19:16:00,24.4,14.0,30.16,NNW,346,4.0,-999.0,64,-99.99,,,0.00,0,weatherlink.com 1.10,2013-02-22 00:16:00,
2013-02-21 19:32:00,24.1,14.0,30.15,North,360,7.0,-999.0,65,-99.99,,,0.00,0,weatherlink.com 1.10,2013-02-22 00:32:00,
2013-02-21 19:47:00,24.0,14.0,30.18,NNW,338,5.0,-999.0,66,-99.99,,,0.00,0,weatherlink.com 1.10,2013-02-22 00:47:00,
2013-02-21 20:02:00,23.8,14.0,30.18,North,350,4.0,-999.0,66,-99.99,,,0.00,0,weatherlink.com 1.10,2013-02-22 01:02:00,
2013-02-21 20:17:00,23.7,14.0,30.21,NNW,346,6.0,-999.0,66,-99.99,,,0.00,0,weatherlink.com 1.10,2013-02-22 01:17:00,
2013-02-21 20:32:00,23.6,14.0,30.22,North,355,3.0,-999.0,67,-99.99,,,0.00,0,weatherlink.com 1.10,2013-02-22 01:32:00,
2013-02-21 20:47:00,23.4,14.0,30.23,NNE,25,0.0,-999.0,67,-99.99,,,0.00,0,weatherlink.com 1.10,2013-02-22 01:47:00,
2013-02-21 21:02:00,23.3,14.0,30.25,NNE,29,1.0,-999.0,68,-99.99,,,0.00,0,weatherlink.com 1.10,2013-02-22 02:02:00,
2013-02-21 21:17:00,23.4,14.0,30.26,North,350,3.0,-999.0,68,-99.99,,,0.00,0,weatherlink.com 1.10,2013-02-22 02:17:00,
2013-02-21 21:32:00,23.3,15.0,30.26,North,350,3.0,-999.0,69,-99.99,,,0.00,0,weatherlink.com 1.10,2013-02-22 02:32:00,
2013-02-21 21:47:00,23.2,14.0,30.27,North,355,3.0,-999.0,69,-99.99,,,0.00,0,weatherlink.com 1.10,2013-02-22 02:47:00,
2013-02-21 22:02:00,23.1,14.0,30.27,North,355,3.0,-999.0,69,-99.99,,,0.00,0,weatherlink.com 1.10,2013-02-22 03:02:00,
2013-02-21 22:17:00,23.0,15.0,30.27,NE,36,3.0,-999.0,70,-99.99,,,0.00,0,weatherlink.com 1.10,2013-02-22 03:17:00,
2013-02-21 22:32:00,23.1,15.0,30.27,NNE,12,3.0,-999.0,71,-99.99,,,0.00,0,weatherlink.com 1.10,2013-02-22 03:32:00,
2013-02-21 22:47:00,23.1,15.0,30.29,NNE,29,3.0,-999.0,71,-99.99,,,0.00,0,weatherlink.com 1.10,2013-02-22 03:47:00,
2013-02-21 23:17:00,23.3,15.0,30.30,NNW,327,1.0,-999.0,71,-99.99,,,0.00,0,weatherlink.com 1.10,2013-02-22 04:17:00,
2013-02-21 23:32:00,23.3,15.0,30.30,NNW,336,0.0,-999.0,71,-99.99,,,0.00,0,weatherlink.com 1.10,2013-02-22 04:32:00,
2013-02-21 23:47:00,23.1,15.0,30.30,North,360,1.0,-999.0,71,-99.99,,,0.00,0,weatherlink.com 1.10,2013-02-22 04:47:00,